Time,TemperatureF,DewpointF,PressureIn,WindDirection,WindDirectionDegrees,WindSpeedMPH,WindSpeedGustMPH,Humidity,HourlyPrecipIn,Conditions,Clouds,dailyrainin,SoftwareType,DateUTC
2013-08-11 00:09:00,73.8,73.0,30.07,East,99,0.0,0.0,97,0.00,,,0.00,weatherlink.com 1.10,2013-08-11 04:09:00,
2013-08-11 00:24:00,73.6,73.0,30.06,East,98,0.0,0.0,97,0.00,,,0.00,weatherlink.com 1.10,2013-08-11 04:24:00,
2013-08-11 00:39:00,73.6,73.0,30.06,East,98,0.0,0.0,97,0.00,,,0.00,weatherlink.com 1.10,2013-08-11 04:39:00,
2013-08-11 00:54:00,73.4,73.0,30.05,East,98,0.0,0.0,97,0.00,,,0.00,weatherlink.com 1.10,2013-08-11 04:54:00,
2013-08-11 01:09:00,73.1,72.0,30.05,East,98,0.0,0.0,97,0.00,,,0.00,weatherlink.com 1.10,2013-08-11 05:09:00,
2013-08-11 01:24:00,73.0,72.0,30.05,East,98,0.0,0.0,97,0.00,,,0.00,weatherlink.com 1.10,2013-08-11 05:24:00,
2013-08-11 01:39:00,73.0,72.0,30.05,East,98,0.0,0.0,98,0.00,,,0.00,weatherlink.com 1.10,2013-08-11 05:39:00,
2013-08-11 01:54:00,72.9,72.0,30.04,East,98,0.0,0.0,97,0.00,,,0.00,weatherlink.com 1.10,2013-08-11 05:54:00,
2013-08-11 02:39:00,72.6,72.0,30.04,East,98,0.0,0.0,98,0.00,,,0.00,weatherlink.com 1.10,2013-08-11 06:39:00,
2013-08-11 03:09:00,72.6,72.0,30.04,East,98,0.0,0.0,98,0.00,,,0.00,weatherlink.com 1.10,2013-08-11 07:09:00,
2013-08-11 03:24:00,72.8,72.0,30.04,East,98,0.0,0.0,98,0.00,,,0.00,weatherlink.com 1.10,2013-08-11 07:24:00,
2013-08-11 03:39:00,72.8,72.0,30.04,ESE,104,0.0,1.0,98,0.00,,,0.00,weatherlink.com 1.10,2013-08-11 07:39:00,
2013-08-11 04:09:00,72.9,72.0,30.04,ESE,104,0.0,1.0,98,0.00,,,0.00,weatherlink.com 1.10,2013-08-11 08:09:00,
2013-08-11 04:39:00,72.7,72.0,30.05,ESE,104,0.0,1.0,98,0.00,,,0.00,weatherlink.com 1.10,2013-08-11 08:39:00,
2013-08-11 05:24:00,72.3,72.0,30.05,ESE,104,0.0,0.0,98,0.00,,,0.00,weatherlink.com 1.10,2013-08-11 09:24:00,
2013-08-11 05:54:00,72.1,72.0,30.06,ESE,104,0.0,0.0,98,0.00,,,0.00,weatherlink.com 1.10,2013-08-11 09:54:00,
2013-08-11 06:09:00,72.0,71.0,30.06,ESE,104,0.0,1.0,98,0.00,,,0.00,weatherlink.com 1.10,2013-08-11 10:09:00,
2013-08-11 06:39:00,71.9,71.0,30.07,ESE,104,0.0,0.0,98,0.00,,,0.00,weatherlink.com 1.10,2013-08-11 10:39:00,
2013-08-11 06:54:00,71.9,71.0,30.08,ESE,104,0.0,0.0,98,0.00,,,0.00,weatherlink.com 1.10,2013-08-11 10:54:00,
2013-08-11 07:09:00,72.0,71.0,30.07,ESE,104,0.0,0.0,98,0.00,,,0.00,weatherlink.com 1.10,2013-08-11 11:09:00,
2013-08-11 07:24:00,72.2,72.0,30.07,ESE,104,0.0,0.0,98,0.00,,,0.00,weatherlink.com 1.10,2013-08-11 11:24:00,
2013-08-11 07:39:00,72.4,72.0,30.07,ESE,104,0.0,1.0,99,0.00,,,0.00,weatherlink.com 1.10,2013-08-11 11:39:00,
2013-08-11 08:09:00,73.2,73.0,30.08,ESE,113,0.0,2.0,98,0.00,,,0.00,weatherlink.com 1.10,2013-08-11 12:09:00,
2013-08-11 08:24:00,73.9,73.0,30.08,East,101,0.0,3.0,97,0.00,,,0.00,weatherlink.com 1.10,2013-08-11 12:24:00,
2013-08-11 08:39:00,74.4,73.0,30.08,ESE,111,0.0,2.0,96,0.00,,,0.00,weatherlink.com 1.10,2013-08-11 12:39:00,
2013-08-11 08:55:00,74.7,73.0,30.08,ESE,111,0.0,1.0,95,0.00,,,0.00,weatherlink.com 1.10,2013-08-11 12:55:00,
2013-08-11 09:25:00,76.4,74.0,30.08,WSW,248,1.0,3.0,92,0.00,,,0.00,weatherlink.com 1.10,2013-08-11 13:25:00,
2013-08-11 09:40:00,77.1,74.0,30.08,WNW,297,0.0,6.0,90,0.00,,,0.00,weatherlink.com 1.10,2013-08-11 13:40:00,
2013-08-11 09:55:00,78.0,74.0,30.08,SE,144,0.0,7.0,88,0.00,,,0.00,weatherlink.com 1.10,2013-08-11 13:55:00,
2013-08-11 10:10:00,78.9,75.0,30.08,East,99,1.0,3.0,88,0.00,,,0.00,weatherlink.com 1.10,2013-08-11 14:10:00,
2013-08-11 10:25:00,80.2,75.0,30.08,NNE,19,1.0,6.0,85,0.00,,,0.00,weatherlink.com 1.10,2013-08-11 14:25:00,
2013-08-11 10:40:00,81.1,76.0,30.09,WNW,288,3.0,6.0,84,0.00,,,0.00,weatherlink.com 1.10,2013-08-11 14:40:00,
2013-08-11 10:55:00,81.8,76.0,30.08,WNW,288,1.0,4.0,83,0.00,,,0.00,weatherlink.com 1.10,2013-08-11 14:55:00,
2013-08-11 11:10:00,82.5,76.0,30.08,ESE,111,2.0,5.0,81,0.00,,,0.00,weatherlink.com 1.10,2013-08-11 15:10:00,
2013-08-11 11:25:00,82.9,76.0,30.08,SSE,166,1.0,5.0,80,0.00,,,0.00,weatherlink.com 1.10,2013-08-11 15:25:00,
2013-08-11 11:40:00,83.4,76.0,30.08,West,275,0.0,4.0,79,0.00,,,0.00,weatherlink.com 1.10,2013-08-11 15:40:00,
2013-08-11 11:55:00,84.2,77.0,30.07,West,280,1.0,5.0,80,0.00,,,0.00,weatherlink.com 1.10,2013-08-11 15:55:00,
2013-08-11 12:10:00,84.8,77.0,30.07,ESE,115,0.0,3.0,76,0.00,,,0.00,weatherlink.com 1.10,2013-08-11 16:10:00,
2013-08-11 12:25:00,86.3,77.0,30.06,NW,306,0.0,4.0,74,0.00,,,0.00,weatherlink.com 1.10,2013-08-11 16:25:00,
2013-08-11 12:40:00,87.2,77.0,30.06,West,277,1.0,6.0,72,0.00,,,0.00,weatherlink.com 1.10,2013-08-11 16:40:00,
2013-08-11 12:55:00,88.5,78.0,30.05,East,90,0.0,6.0,70,0.00,,,0.00,weatherlink.com 1.10,2013-08-11 16:55:00,
2013-08-11 13:10:00,89.4,78.0,30.05,ESE,106,1.0,4.0,69,0.00,,,0.00,weatherlink.com 1.10,2013-08-11 17:10:00,
2013-08-11 13:25:00,90.3,78.0,30.05,NW,309,3.0,3.0,67,0.00,,,0.00,weatherlink.com 1.10,2013-08-11 17:25:00,
2013-08-11 13:40:00,90.0,78.0,30.05,South,171,0.0,4.0,68,0.00,,,0.00,weatherlink.com 1.10,2013-08-11 17:40:00,
2013-08-11 13:55:00,91.0,78.0,30.04,SSE,168,0.0,3.0,66,0.00,,,0.00,weatherlink.com 1.10,2013-08-11 17:55:00,
2013-08-11 14:11:00,91.7,76.0,30.03,East,91,1.0,4.0,61,0.00,,,0.00,weatherlink.com 1.10,2013-08-11 18:11:00,
2013-08-11 14:26:00,91.5,78.0,30.03,SSE,159,1.0,7.0,64,0.00,,,0.00,weatherlink.com 1.10,2013-08-11 18:26:00,
2013-08-11 14:41:00,92.4,77.0,30.02,West,262,1.0,3.0,60,0.00,,,0.00,weatherlink.com 1.10,2013-08-11 18:41:00,
2013-08-11 14:56:00,92.6,77.0,30.02,SSW,213,3.0,3.0,61,0.00,,,0.00,weatherlink.com 1.10,2013-08-11 18:56:00,
2013-08-11 15:11:00,93.1,79.0,30.01,WSW,237,0.0,5.0,63,0.00,,,0.00,weatherlink.com 1.10,2013-08-11 19:11:00,
2013-08-11 15:41:00,93.0,79.0,30.01,South,182,0.0,4.0,63,0.00,,,0.00,weatherlink.com 1.10,2013-08-11 19:41:00,
2013-08-11 15:56:00,92.0,78.0,30.00,SW,234,0.0,4.0,63,0.00,,,0.00,weatherlink.com 1.10,2013-08-11 19:56:00,
2013-08-11 16:26:00,91.2,78.0,29.98,WSW,246,1.0,5.0,65,0.00,,,0.00,weatherlink.com 1.10,2013-08-11 20:26:00,
2013-08-11 16:41:00,91.9,79.0,29.99,ESE,116,0.0,5.0,67,0.00,,,0.00,weatherlink.com 1.10,2013-08-11 20:41:00,
2013-08-11 16:56:00,92.6,80.0,29.99,ESE,116,2.0,3.0,66,0.00,,,0.00,weatherlink.com 1.10,2013-08-11 20:56:00,
2013-08-11 17:11:00,92.9,78.0,29.99,NW,309,6.0,6.0,62,0.00,,,0.00,weatherlink.com 1.10,2013-08-11 21:11:00,
2013-08-11 17:26:00,92.5,77.0,29.99,South,188,1.0,4.0,60,0.00,,,0.00,weatherlink.com 1.10,2013-08-11 21:26:00,
2013-08-11 17:41:00,92.0,79.0,29.99,SSE,164,1.0,3.0,65,0.00,,,0.00,weatherlink.com 1.10,2013-08-11 21:41:00,
2013-08-11 17:56:00,91.3,78.0,29.99,ESE,112,0.0,3.0,66,0.00,,,0.00,weatherlink.com 1.10,2013-08-11 21:56:00,
2013-08-11 18:11:00,90.2,77.0,29.99,SE,144,1.0,5.0,65,0.00,,,0.00,weatherlink.com 1.10,2013-08-11 22:11:00,
2013-08-11 18:26:00,88.5,78.0,29.99,WSW,245,0.0,2.0,70,0.00,,,0.00,weatherlink.com 1.10,2013-08-11 22:26:00,
2013-08-11 19:11:00,85.6,77.0,29.99,WNW,289,1.0,3.0,75,0.00,,,0.00,weatherlink.com 1.10,2013-08-11 23:11:00,
2013-08-11 19:26:00,85.3,77.0,29.99,WNW,289,0.0,1.0,77,0.00,,,0.00,weatherlink.com 1.10,2013-08-11 23:26:00,
2013-08-11 19:56:00,82.7,77.0,30.00,WNW,289,0.0,0.0,82,0.00,,,0.00,weatherlink.com 1.10,2013-08-11 23:56:00,
2013-08-11 20:11:00,81.8,77.0,30.01,WNW,289,0.0,0.0,85,0.00,,,0.00,weatherlink.com 1.10,2013-08-12 00:11:00,
2013-08-11 20:26:00,80.8,77.0,30.00,WNW,289,0.0,0.0,87,0.00,,,0.00,weatherlink.com 1.10,2013-08-12 00:26:00,
2013-08-11 20:41:00,80.0,77.0,30.00,WNW,289,0.0,0.0,89,0.00,,,0.00,weatherlink.com 1.10,2013-08-12 00:41:00,
2013-08-11 21:26:00,79.1,76.0,30.01,WNW,282,0.0,1.0,89,0.00,,,0.00,weatherlink.com 1.10,2013-08-12 01:26:00,
2013-08-11 21:41:00,79.1,76.0,30.01,West,269,1.0,1.0,89,0.00,,,0.00,weatherlink.com 1.10,2013-08-12 01:41:00,
2013-08-11 21:56:00,79.0,76.0,30.02,West,269,0.0,0.0,89,0.00,,,0.00,weatherlink.com 1.10,2013-08-12 01:56:00,
2013-08-11 22:11:00,78.7,76.0,30.02,West,269,0.0,1.0,90,0.00,,,0.00,weatherlink.com 1.10,2013-08-12 02:11:00,
2013-08-11 22:26:00,78.3,75.0,30.02,West,269,0.0,1.0,90,0.00,,,0.00,weatherlink.com 1.10,2013-08-12 02:26:00,
2013-08-11 22:41:00,77.8,75.0,30.03,West,269,0.0,0.0,91,0.00,,,0.00,weatherlink.com 1.10,2013-08-12 02:41:00,
2013-08-11 23:11:00,76.9,74.0,30.03,West,269,0.0,0.0,91,0.00,,,0.00,weatherlink.com 1.10,2013-08-12 03:11:00,
2013-08-11 23:26:00,76.5,74.0,30.03,West,269,0.0,0.0,92,0.00,,,0.00,weatherlink.com 1.10,2013-08-12 03:26:00,
2013-08-11 23:56:00,76.0,74.0,30.02,West,269,0.0,1.0,92,0.00,,,0.00,weatherlink.com 1.10,2013-08-12 03:56:00,